Location: Muenchen
(48.1800°N, 11.5800°E)
Time: 05:25:12
(UTC+01:00)

Vanguard 2 Rocket - Visible Passes

Search period start: 24 February 2018 00:00
Search period end: 06 March 2018 00:00
Orbit: 555 x 3327 km, 32.9° (Epoch: 23 February)

Date Brightness Start Highest point End Pass type
(mag) Time Alt. Az. Time Alt. Az. Time Alt. Az.
24 Feb 10.9 00:32:51 13° ESE 00:32:51 13° ESE 00:34:05 10° ESE visible
24 Feb 10.1 02:38:41 34° SSE 02:38:41 34° SSE 02:49:53 10° SE visible
24 Feb 10.2 04:44:31 23° SW 04:47:23 24° SW 05:01:03 10° S visible
24 Feb 9.6 20:54:57 10° SSW 20:56:38 15° S 20:56:38 15° S visible
24 Feb10.523:36:59E23:36:59E23:02:28WSWvisible
25 Feb 10.5 01:42:49 23° SE 01:42:49 23° SE 01:49:01 10° SE visible
25 Feb 10.1 03:48:40 29° SSW 03:48:40 29° SSW 04:02:15 10° SSE visible
25 Feb 10.6 05:57:24 10° WSW 06:00:52 11° SW 06:04:21 10° SW visible
25 Feb 9.5 19:58:18 10° SSE 20:00:50 14° SSE 20:00:50 14° SSE visible
25 Feb 9.9 22:06:14 10° SW 22:06:40 12° SW 22:06:40 12° SW visible
26 Feb 10.9 00:47:01 11° ESE 00:47:01 11° ESE 00:47:35 10° ESE visible
26 Feb 10.2 02:52:52 28° S 02:52:52 28° S 03:02:29 10° SSE visible
26 Feb 10.4 04:58:42 17° SW 05:00:34 17° SW 05:10:58 10° S visible
26 Feb 9.4 21:08:07 10° SSW 21:10:51 20° S 21:10:51 20° S visible
27 Feb 10.6 01:57:07 20° SE 01:57:07 20° SE 02:01:57 10° SE visible
27 Feb 10.3 04:02:58 22° SSW 04:02:58 22° SSW 04:13:24 10° S visible
27 Feb 9.2 20:10:40 10° S 20:14:59 20° SSE 20:14:59 20° SSE visible
27 Feb 9.8 22:20:05 10° SW 22:20:49 13° SW 22:20:49 13° SW visible
28 Feb 10.4 03:07:15 21° S 03:07:15 21° S 03:14:21 10° SSE visible
28 Feb 9.4 19:14:44 10° SSE 19:17:38 12° SE 19:19:05 12° SE visible
28 Feb 9.2 21:21:45 10° SW 21:24:55 23° SSW 21:24:55 23° SSW visible
01 Mar 10.7 02:11:34 15° SSE 02:11:34 15° SSE 02:14:19 10° SSE visible
01 Mar 10.6 04:17:25 14° SSW 04:17:25 14° SSW 04:22:43 10° SSW visible
01 Mar 8.9 20:23:51 10° SSW 20:28:58 24° SSE 20:28:58 24° SSE visible
01 Mar 9.8 22:34:10 10° WSW 22:34:48 13° SW 22:34:48 13° SW visible
02 Mar 10.7 03:21:45 14° S 03:21:45 14° S 03:25:06 10° S visible
02 Mar 9.1 19:26:41 10° S 19:31:02 17° SE 19:33:00 16° SE visible
02 Mar 9.2 21:35:40 10° SW 21:38:49 24° SSW 21:38:49 24° SSW visible
03 Mar 8.8 20:37:30 10° SW 20:42:48 28° SSE 20:42:48 28° SSE visible
03 Mar 9.9 22:48:26 10° WSW 22:48:37 11° WSW 22:48:37 11° WSW visible
04 Mar 8.8 19:39:48 10° SSW 19:44:38 21° SSE 19:46:46 19° SE visible
04 Mar 9.2 21:49:48 10° SW 21:52:35 22° SW 21:52:35 22° SW visible
05 Mar 9.0 18:43:05 10° S 18:45:48 13° SE 18:49:03 10° ESE visible
05 Mar 8.7 20:51:28 10° SW 20:56:30 29° S 20:56:30 29° S visible
